[[{"header":{"parameterUnit":"m.s-1","parameterCategory":2,"la1":30.2991,"la2":30.254,"lo1":-89.0895,"lo2":-89.0444,"dy":0.0017,"dx":0.0017,"nx":28,"ny":28,"refTime":"2025-08-22T03:00:00:Z","depth":"0","parameterNumber":2,"parameterNumberName":"U-component_of_CURRENTS"},"data":[0,0,0,0,0,0,0,0,0,0,0,0,0,0,0,0,0,0,0,0,0,0,0,0,0,0,0,0,0,0,0,0,0,0,0,0,0,0,0,0,0,0,0,0,0,0,0,0,0,0,0,0,0,0,0,0,0,0,0.3064,0.3065,0,0.3064,0.3064,0.3064,0.3045,0.3045,0.3044,0.3044,0.306,0.306,0.3061,0,0,0,0,0,0,0,0,0,0,0,0,0,0.3077,0.3077,0.3064,0.3065,0.3065,0.3064,0.3064,0.3064,0.3045,0.3045,0.3044,0.3044,0.3059,0.306,0.3061,0,0,0,0,0,0,0,0,0,0,0,0,0,0.3072,0.3076,0.3064,0.3056,0.3055,0.3064,0.3064,0.3064,0.3045,0.3045,0.3044,0.3044,0.3059,0.306,0.3061,0.308,0,0,0.3065,0.3065,0,0,0,0,0,0,0,0,0.3073,0.3072,0.3057,0.3057,0.3056,0.3055,0.3074,0.307,0.3045,0.3048,0.3044,0.3043,0.3061,0.3062,0.3061,0.308,0.3081,0.3065,0.3066,0.3066,0.3066,0,0,0,0,0,0,0,0.3073,0.3072,0.3063,0.3057,0.3057,0.3062,0.3061,0.3073,0.3057,0.3047,0.3046,0.3049,0.306,0.306,0.3061,0.3081,0.3065,0.3066,0.3067,0.3067,0.3185,0.3188,0,0,0,0,0,0,0.3075,0.3072,0.3063,0.3063,0.3065,0.3063,0.3061,0.3055,0.3056,0.3056,0.3049,0.3048,0.3058,0.306,0.3062,0.3145,0.3066,0.3067,0.3068,0.3183,0.3186,0.3189,0,0,0,0,0,0,0.3075,0.3074,0.3063,0.3069,0.3068,0.3063,0.3057,0.3055,0.3058,0.3058,0.3057,0.3054,0.3058,0.306,0.3084,0.3143,0.3068,0.3069,0.318,0.3184,0.3187,0.3272,0,0,0,0,0,0,0.3075,0.3073,0.3073,0.3069,0.3068,0.3075,0.3057,0.3056,0.3061,0.3059,0.3062,0.3062,0.3058,0.3083,0.3086,0.3143,0.307,0.3177,0.3182,0.3186,0.3266,0.3278,0.3288,0,0,0,0,0,0.3075,0.3078,0.3073,0.3073,0.3067,0.3076,0.3077,0.307,0.3062,0.3069,0.3074,0.3062,0.3115,0.3085,0.3088,0.3147,0.3175,0.318,0.3186,0.3261,0.3276,0.3288,0,0,0,0,0,0,0.3086,0.3077,0.3071,0.3071,0.3077,0.3074,0.3081,0.3076,0.3085,0.3086,0.308,0.3081,0.3132,0.3125,0.3092,0.3197,0.315,0.3156,0.3206,0.322,0.3231,0.3258,0.3071,0,0,0,0,0,0.3088,0.3085,0.3084,0.3085,0.3089,0.3086,0.309,0.3089,0.3095,0.3097,0.3099,0.3117,0.3158,0.3173,0.3193,0.324,0.3276,0.3285,0.3297,0.3306,0.3332,0.3447,0.3471,0.3207,0.3207,0.3207,0,0,0.3091,0.3088,0.3086,0.3088,0.309,0.3113,0.3087,0.31,0.3135,0.31,0.3141,0.3151,0.3178,0.3236,0.326,0.3236,0.3398,0.3313,0.3321,0.3343,0.3455,0.3481,0.3504,0.3211,0.321,0.3209,0,0,0.3103,0.3097,0.3101,0.3112,0.3122,0.3133,0.3139,0.3143,0.3161,0.3195,0.3201,0.3246,0.3272,0.3323,0.335,0.3437,0.3452,0.3441,0.3523,0.3634,0.3657,0.3678,0.3745,0.3771,0.3449,0.3449,0.3449,0,0.3111,0.3115,0.3107,0.3123,0.3146,0.3146,0.3177,0.3203,0.3217,0.3261,0.3219,0.3326,0.3328,0.3455,0.3478,0.3468,0.3514,0.3466,0.365,0.3672,0.3692,0.3756,0.3784,0.3454,0.3453,0.3453,0.3452,0,0.3127,0.314,0.3149,0.3174,0.3202,0.3226,0.3265,0.3303,0.3319,0.3353,0.3456,0.3466,0.354,0.355,0.3534,0.3691,0.3671,0.3649,0.3616,0.3724,0.3784,0.3811,0.3461,0.3459,0.3457,0.3456,0,0,0.3121,0.3152,0.3156,0.3187,0.3233,0.3261,0.3343,0.3429,0.3507,0.3533,0.3642,0.3706,0.3719,0.3753,0.3756,0.3836,0.3992,0.3801,0.3804,0.3869,0.4222,0.4121,0.414,0.4006,0.4012,0.4016,0.4202,0,0.3139,0.3177,0.3199,0.3269,0.33,0.3354,0.3438,0.3524,0.3589,0.3691,0.3758,0.3847,0.38,0.3839,0.3923,0.3975,0.4072,0.3943,0.4109,0.4113,0.4012,0.4172,0.3933,0.4073,0.4229,0.4234,0.4237,0,0.3142,0.3177,0.3231,0.3332,0.3355,0.3407,0.356,0.3636,0.3791,0.3845,0.396,0.4003,0.4141,0.4065,0.4259,0.4179,0.4222,0.4249,0.4257,0.4157,0.4065,0.3995,0.4117,0.4014,0.4279,0.4276,0.4273,0,0.313,0.3204,0.3253,0.328,0.3391,0.3454,0.3532,0.3682,0.3785,0.3953,0.4041,0.4193,0.4282,0.4375,0.4427,0.4365,0.4619,0.454,0.4503,0.4494,0.4322,0.4289,0.4366,0.4712,0.4711,0.4711,0.471,0,0.3131,0.3174,0.3249,0.3277,0.3389,0.346,0.3605,0.3706,0.3871,0.4014,0.412,0.4255,0.4369,0.4509,0.4524,0.461,0.4717,0.4566,0.4564,0.434,0.4307,0.4231,0.4178,0.4718,0.4716,0.4715,0.4714,0,0.3106,0.3137,0.3218,0.3335,0.3376,0.3462,0.3637,0.3747,0.3894,0.4083,0.4146,0.4359,0.4523,0.462,0.4781,0.4741,0.4676,0.482,0.4526,0.4484,0.4281,0.424,0.4185,0.4062,0.4801,0.48,0.4799,0,0.3091,0.3119,0.325,0.3312,0.3365,0.3491,0.3585,0.3742,0.3854,0.4139,0.4226,0.4456,0.4586,0.478,0.4751,0.4797,0.4675,0.461,0.4445,0.4288,0.4244,0.4075,0.3963,0.425,0.4245,0.424,0.4237,0,0.311,0.3151,0.3231,0.3336,0.3429,0.3534,0.3663,0.3746,0.3941,0.4086,0.4282,0.441,0.4585,0.4531,0.4597,0.4578,0.435,0.4521,0.446,0.3922,0.3648,0.3518,0.4089,0.4199,0.4203,0.4205,0.4207,0.4209,0.3148,0.3202,0.3296,0.3387,0.3478,0.3541,0.3578,0.3705,0.3838,0.3988,0.4192,0.4268,0.4316,0.4345,0.4312,0.4088,0.4103,0.3932,0.393,0.3801,0.3571,0.4043,0.4078,0.4081,0.4083,0.4086,0.4088,0,0.3204,0.3252,0.334,0.3427,0.3463,0.3514,0.3603,0.3586,0.365,0.3813,0.3924,0.3905,0.3861,0.3852,0.3682,0.3518,0.334,0.3437,0.3155,0.3103,0.3622,0.3483,0.3267,0.3267,0.3267,0.3267,0.3267,0.3267,0.325,0.3319,0.3332,0.3373,0.3403,0.3372,0.3369,0.3346,0.3391,0.3371,0.3331,0.3385,0.3463,0.3431,0.3213,0.3119,0.2897,0.2742,0.2813,0.3184,0.3229,0.3272,0.3132,0.2846,0.2845,0.2102,0.2097,0.2093]},{"header":{"parameterUnit":"m.s-1","parameterCategory":2,"la1":30.2991,"la2":30.254,"lo1":-89.0895,"lo2":-89.0444,"dy":0.0017,"dx":0.0017,"nx":28,"ny":28,"refTime":"2025-08-22T03:00:00:Z","depth":"0","parameterNumber":3,"parameterNumberName":"V-component_of_CURRENTS"},"data":[0,0,0,0,0,0,0,0,0,0,0,0,0,0,0,0,0,0,0,0,0,0,0,0,0,0,0,0,0,0,0,0,0,0,0,0,0,0,0,0,0,0,0,0,0,0,0,0,0,0,0,0,0,0,0,0,0,0,0.0085,0.0085,0,0.0036,0.0035,0.0034,-0.0001,-0.0002,-0.0002,-0.0002,-0.0061,-0.0062,-0.0064,0,0,0,0,0,0,0,0,0,0,0,0,0,0.0097,0.0097,0.0085,0.0085,0.0084,0.0036,0.0035,0.0034,-0.0001,-0.0002,-0.0002,-0.0002,-0.0061,-0.0062,-0.0064,0,0,0,0,0,0,0,0,0,0,0,0,0,0.0073,0.0097,0.0085,0.0062,0.006,0.0036,0.0035,0.0034,-0.0001,-0.0002,-0.0002,-0.0002,-0.006,-0.0062,-0.0064,-0.0074,0,0,-0.0071,-0.0072,0,0,0,0,0,0,0,0,0.0074,0.0072,0.0066,0.0064,0.0061,0.0025,0.0018,-0.0002,-0.0001,0.002,-0.0002,-0.0002,-0.0032,-0.0036,-0.0048,-0.0076,-0.0079,-0.0071,-0.0072,-0.0073,-0.0074,0,0,0,0,0,0,0,0.0076,0.0074,0.0064,0.0066,0.0062,0.0036,0.0033,0.0013,-0.0006,0.0018,0.0016,0.0013,-0.0034,-0.0046,-0.0049,-0.008,-0.0071,-0.0073,-0.0074,-0.0075,-0.0107,-0.0106,0,0,0,0,0,0,0.0089,0.0076,0.0065,0.0063,0.0069,0.0037,0.0033,0.0035,-0.0006,-0.0011,0.0013,0.0012,-0.0042,-0.0047,-0.0052,-0.0044,-0.0073,-0.0075,-0.0077,-0.0107,-0.0107,-0.0106,0,0,0,0,0,0,0.0089,0.0089,0.0067,0.0069,0.0065,0.0037,0.004,0.0034,0.0026,-0.0009,-0.0015,0.0012,-0.0042,-0.0049,-0.0062,-0.0048,-0.0076,-0.0078,-0.0108,-0.0107,-0.0106,-0.0043,0,0,0,0,0,0,0.009,0.0089,0.0093,0.007,0.0065,0.0064,0.004,0.0033,0.0026,0.0023,-0.0012,-0.0018,-0.0043,-0.0058,-0.0064,-0.0051,-0.008,-0.0108,-0.0107,-0.0107,-0.0046,-0.004,-0.0035,0,0,0,0,0,0.0091,0.0102,0.0093,0.0092,0.0072,0.0065,0.006,0.0038,0.0026,0.0028,0.0004,-0.0017,-0.0057,-0.0059,-0.0066,-0.0054,-0.0109,-0.0108,-0.0107,-0.0048,-0.0041,-0.0036,0,0,0,0,0,0,0.0107,0.0099,0.0089,0.0096,0.0085,0.0059,0.0058,0.0044,0.0025,0.0021,-0.0012,-0.002,-0.0027,-0.0049,-0.0051,-0.0061,-0.0086,-0.0086,-0.0039,-0.0033,-0.0028,-0.0005,-0.0082,0,0,0,0,0,0.0113,0.0121,0.0106,0.0111,0.0108,0.0084,0.0077,0.0064,0.0045,0.0036,0.0013,-0.0011,-0.0029,-0.0037,-0.0059,-0.0062,-0.0066,-0.0059,-0.0054,-0.0049,-0.0035,-0.0027,-0.0019,-0.0103,-0.0103,-0.0103,0,0,0.012,0.0117,0.012,0.0115,0.0102,0.0109,0.0079,0.0075,0.0082,0.0033,0.0034,0.0004,-0.0027,-0.0032,-0.0037,-0.0047,-0.0028,-0.0048,-0.0044,-0.0032,-0.0024,-0.0016,-0.0009,-0.0102,-0.0102,-0.0102,0,0,0.0143,0.0136,0.0152,0.0149,0.014,0.0127,0.0131,0.0111,0.0104,0.0097,0.0067,0.0051,0.0019,0.0007,-0.0006,0.0015,-0.0003,0.0003,0.0051,0.006,0.0067,0.0073,0.0082,0.0089,0.0009,0.0009,0.0009,0,0.015,0.0172,0.0154,0.017,0.0178,0.0142,0.0164,0.0151,0.0129,0.0137,0.0106,0.0079,0.0041,0.0055,0.0051,0.0029,0.003,0.0031,0.0068,0.0074,0.008,0.0087,0.0094,0.0012,0.0012,0.0012,0.0011,0,0.0189,0.0205,0.0215,0.0228,0.0231,0.0242,0.0229,0.0228,0.0209,0.0199,0.0203,0.0155,0.0147,0.0124,0.0086,0.0111,0.0097,0.0073,0.0057,0.0093,0.0097,0.0103,0.0017,0.0016,0.0015,0.0014,0,0,0.021,0.0239,0.0243,0.0269,0.0266,0.0279,0.029,0.0303,0.0333,0.0294,0.0336,0.0276,0.0255,0.024,0.02,0.0191,0.0212,0.0148,0.0147,0.0165,0.0236,0.0202,0.0205,0.0195,0.0196,0.0197,0.0225,0,0.0248,0.0303,0.0302,0.0353,0.0384,0.0367,0.0392,0.0397,0.0391,0.0419,0.0377,0.0392,0.0301,0.0306,0.0282,0.0237,0.023,0.0207,0.0192,0.0191,0.0164,0.0211,0.021,0.0233,0.0231,0.0232,0.0232,0,0.0287,0.0326,0.0386,0.0442,0.0454,0.0474,0.0522,0.0543,0.0561,0.0563,0.0562,0.0533,0.0519,0.0438,0.0386,0.0377,0.0312,0.0265,0.0265,0.0217,0.0168,0.0195,0.0243,0.0093,0.0241,0.024,0.024,0,0.0329,0.0385,0.0443,0.0459,0.0508,0.0535,0.056,0.0587,0.0636,0.0667,0.0712,0.0676,0.0692,0.0601,0.0484,0.0444,0.0433,0.037,0.0281,0.0278,0.0268,0.0261,0.0177,0.034,0.034,0.034,0.034,0,0.0376,0.0422,0.0468,0.0502,0.0586,0.0596,0.0685,0.0702,0.0763,0.0858,0.0798,0.0875,0.0733,0.0702,0.056,0.0453,0.0496,0.0308,0.029,0.0288,0.0283,0.0141,0.0045,0.0341,0.0341,0.0341,0.0341,0,0.0413,0.0438,0.0515,0.0581,0.0607,0.0669,0.0769,0.084,0.0882,0.101,0.1034,0.1047,0.1017,0.0864,0.0746,0.0579,0.0369,0.0408,0.0412,0.0392,0.0133,0.0042,-0.0061,-0.0135,0.0313,0.0313,0.0312,0,0.0438,0.0479,0.0575,0.0633,0.0665,0.0758,0.0832,0.0894,0.0985,0.1132,0.1211,0.1228,0.1279,0.1084,0.0806,0.0579,0.0402,0.0391,0.0295,0.0136,0.0021,-0.0052,-0.0113,0.031,0.031,0.0309,0.0309,0,0.0493,0.0521,0.059,0.0705,0.0789,0.0902,0.1012,0.1105,0.1214,0.1348,0.1525,0.1585,0.1413,0.1203,0.0858,0.0672,0.0268,0.0373,0.0219,0.0023,-0.0068,-0.0153,0.027,0.0305,0.0306,0.0306,0.0306,0.0306,0.0534,0.0592,0.0677,0.0788,0.0893,0.1032,0.1148,0.1296,0.1484,0.1718,0.1759,0.191,0.1549,0.1098,0.0807,0.0264,0.0256,0.0083,-0.0007,-0.0061,-0.0161,0.0248,0.0247,0.0247,0.0247,0.0247,0.0247,0,0.0589,0.0653,0.0756,0.0893,0.1019,0.1064,0.1264,0.1408,0.1661,0.19,0.2083,0.2009,0.1561,0.1065,0.0321,-0.0054,-0.0196,-0.025,-0.0353,-0.0393,-0.0008,-0.004,-0.0113,-0.0113,-0.0113,-0.0113,-0.0113,-0.0113,0.062,0.0719,0.0769,0.0969,0.1076,0.1266,0.1394,0.1623,0.183,0.2138,0.2265,0.2321,0.1924,0.064,-0.0206,-0.0391,-0.0649,-0.0708,-0.0826,-0.0574,-0.055,-0.0527,-0.0579,-0.0764,-0.0765,-0.1166,-0.117,-0.1173]}],[{"header":{"parameterUnit":"m.s-1","parameterCategory":2,"la1":30.2991,"la2":30.254,"lo1":-89.0895,"lo2":-89.0444,"dy":0.0017,"dx":0.0017,"nx":28,"ny":28,"refTime":"2025-08-22T03:00:00:Z","depth":"2","parameterNumber":2,"parameterNumberName":"U-component_of_CURRENTS"},"data":[0,0,0,0,0,0,0,0,0,0,0,0,0,0,0,0,0,0,0,0,0,0,0,0,0,0,0,0,0,0,0,0,0,0,0,0,0,0,0,0,0,0,0,0,0,0,0,0,0,0,0,0,0,0,0,0,0,0,0.2622,0.2622,0,0.2633,0.2633,0.2633,0.2629,0.2629,0.2629,0.2629,0.2634,0.2634,0.2635,0,0,0,0,0,0,0,0,0,0,0,0,0,0.261,0.261,0.2622,0.2622,0.2622,0.2633,0.2633,0.2633,0.2629,0.2629,0.2629,0.2629,0.2634,0.2634,0.2635,0,0,0,0,0,0,0,0,0,0,0,0,0,0.2616,0.261,0.2622,0.2623,0.2623,0.2633,0.2633,0.2633,0.2629,0.2629,0.2629,0.2629,0.2634,0.2634,0.2635,0.264,0,0,0.2636,0.2636,0,0,0,0,0,0,0,0,0.2615,0.2616,0.2622,0.2623,0.2623,0.2631,0.2631,0.2635,0.2629,0.2625,0.2629,0.2629,0.2634,0.2634,0.2634,0.264,0.264,0.2636,0.2636,0.2636,0.2636,0,0,0,0,0,0,0,0.2615,0.2616,0.2624,0.2623,0.2623,0.2627,0.2628,0.2631,0.2629,0.2626,0.2626,0.2629,0.2634,0.2634,0.2634,0.264,0.2636,0.2636,0.2636,0.2636,0.2701,0.2703,0,0,0,0,0,0,0.2616,0.2615,0.2624,0.2625,0.2621,0.2628,0.2628,0.2627,0.2629,0.2629,0.263,0.2629,0.2633,0.2634,0.2635,0.2682,0.2636,0.2636,0.2637,0.27,0.2701,0.2703,0,0,0,0,0,0,0.2616,0.2617,0.2624,0.2622,0.2623,0.2628,0.2627,0.2628,0.2639,0.2632,0.2632,0.2642,0.2633,0.2634,0.2656,0.2681,0.2637,0.2637,0.2698,0.27,0.2702,0.2751,0,0,0,0,0,0,0.2615,0.2616,0.2621,0.2622,0.2623,0.264,0.2627,0.2628,0.2641,0.2641,0.2643,0.2642,0.2633,0.2655,0.2656,0.268,0.2637,0.2696,0.2699,0.2702,0.2747,0.2754,0.2761,0,0,0,0,0,0.2615,0.2622,0.2621,0.2623,0.2628,0.264,0.2642,0.2644,0.2642,0.2652,0.2658,0.2643,0.2674,0.2657,0.2657,0.2682,0.2695,0.2698,0.2701,0.2744,0.2753,0.276,0,0,0,0,0,0,0.2619,0.2622,0.2622,0.2629,0.2639,0.2641,0.2652,0.2653,0.2665,0.2669,0.2659,0.266,0.2695,0.2682,0.2663,0.2711,0.2683,0.2687,0.2716,0.2724,0.273,0.2762,0.2637,0,0,0,0,0,0.2623,0.2629,0.2634,0.2642,0.2648,0.2653,0.266,0.2664,0.2672,0.2677,0.2679,0.2687,0.2708,0.271,0.2724,0.2742,0.277,0.276,0.2767,0.2773,0.28,0.2872,0.2888,0.2714,0.2714,0.2714,0,0,0.2626,0.263,0.2633,0.2644,0.2651,0.2668,0.2657,0.2675,0.2695,0.2677,0.2706,0.2716,0.2722,0.2751,0.2763,0.2741,0.2834,0.2777,0.2781,0.2807,0.2877,0.2894,0.291,0.2717,0.2716,0.2716,0,0,0.2636,0.2642,0.265,0.2662,0.268,0.2688,0.2698,0.2709,0.2721,0.275,0.2751,0.2784,0.2791,0.2811,0.282,0.2873,0.2876,0.2866,0.2914,0.2983,0.2998,0.3012,0.3058,0.3076,0.2858,0.2858,0.2858,0,0.2643,0.265,0.2657,0.2672,0.2686,0.27,0.2719,0.2738,0.2757,0.2783,0.2768,0.2834,0.283,0.2889,0.2903,0.2891,0.2922,0.2878,0.2993,0.3007,0.302,0.3065,0.3084,0.2861,0.2861,0.286,0.286,0,0.2655,0.2669,0.2679,0.2703,0.2722,0.2742,0.2769,0.2795,0.2813,0.2842,0.2909,0.2918,0.2962,0.2959,0.2944,0.3033,0.3022,0.3001,0.2973,0.3041,0.3083,0.3102,0.2865,0.2864,0.2863,0.2862,0,0,0.2646,0.268,0.2684,0.2699,0.2739,0.2754,0.2803,0.2854,0.2908,0.2937,0.3007,0.3045,0.3069,0.3083,0.3076,0.3122,0.3227,0.3099,0.3102,0.3147,0.3373,0.3265,0.3274,0.3225,0.3229,0.3232,0.336,0,0.2654,0.268,0.2702,0.2739,0.2756,0.2793,0.2843,0.2899,0.2953,0.3027,0.3069,0.314,0.3111,0.3141,0.3188,0.3227,0.3281,0.3194,0.33,0.3304,0.3201,0.3294,0.3024,0.3107,0.3378,0.3381,0.3384,0,0.2651,0.2672,0.2701,0.2759,0.2773,0.2807,0.2896,0.2951,0.3065,0.3109,0.3195,0.3239,0.3329,0.3285,0.3412,0.3358,0.3382,0.3401,0.3405,0.3307,0.3231,0.3086,0.3131,0.3415,0.3413,0.341,0.3408,0,0.2621,0.2671,0.2692,0.2708,0.2779,0.2812,0.2871,0.2981,0.3052,0.3185,0.3256,0.336,0.3428,0.349,0.3523,0.3488,0.3647,0.36,0.3531,0.3522,0.3317,0.3284,0.3709,0.3708,0.3708,0.3708,0.3707,0,0.2608,0.2626,0.2681,0.2691,0.2751,0.2811,0.2911,0.2981,0.3111,0.321,0.3312,0.3395,0.3488,0.3573,0.3585,0.3618,0.3706,0.3576,0.3564,0.3322,0.3289,0.357,0.3552,0.3713,0.3712,0.3711,0.371,0,0.2563,0.2597,0.2627,0.27,0.2734,0.2782,0.2924,0.2994,0.3132,0.3262,0.3312,0.3462,0.357,0.3638,0.374,0.3696,0.3733,0.3716,0.3413,0.3363,0.3549,0.3533,0.3679,0.3676,0.3674,0.3672,0.3671,0,0.2535,0.2542,0.262,0.2651,0.2685,0.2778,0.284,0.2983,0.3059,0.3284,0.3325,0.3494,0.3556,0.367,0.3642,0.3663,0.3719,0.3405,0.3289,0.3581,0.3555,0.3542,0.3528,0.3037,0.303,0.3025,0.3021,0,0.2494,0.2523,0.2558,0.2609,0.2665,0.2734,0.2833,0.2886,0.3056,0.3145,0.3257,0.3337,0.3476,0.337,0.341,0.3374,0.3377,0.3296,0.3718,0.3071,0.2982,0.2954,0.2961,0.2973,0.2978,0.2982,0.2984,0.2986,0.2469,0.2482,0.2526,0.256,0.263,0.2658,0.2667,0.2755,0.2825,0.2915,0.3071,0.3092,0.3162,0.3078,0.2987,0.292,0.3153,0.3,0.3014,0.3035,0.2923,0.2834,0.2776,0.278,0.2783,0.2785,0.2788,0,0.242,0.244,0.2472,0.2501,0.2511,0.258,0.2631,0.2581,0.2576,0.2694,0.2747,0.2558,0.2522,0.2589,0.2427,0.2425,0.2379,0.231,0.2231,0.2282,0.2327,0.2175,0.1832,0.1828,0.1825,0.1822,0,0,0.2402,0.2397,0.2393,0.2367,0.2388,0.2346,0.2337,0.2265,0.2289,0.2224,0.2222,0.2428,0.2536,0.2157,0.2111,0.1943,0.2087,0.186,0.2638,0.26,0.2639,0.275,0.2578,0,0,0,0,0]},{"header":{"parameterUnit":"m.s-1","parameterCategory":2,"la1":30.2991,"la2":30.254,"lo1":-89.0895,"lo2":-89.0444,"dy":0.0017,"dx":0.0017,"nx":28,"ny":28,"refTime":"2025-08-22T03:00:00:Z","depth":"2","parameterNumber":3,"parameterNumberName":"V-component_of_CURRENTS"},"data":[0,0,0,0,0,0,0,0,0,0,0,0,0,0,0,0,0,0,0,0,0,0,0,0,0,0,0,0,0,0,0,0,0,0,0,0,0,0,0,0,0,0,0,0,0,0,0,0,0,0,0,0,0,0,0,0,0,0,0.0168,0.0167,0,0.0122,0.0121,0.0121,0.0089,0.0089,0.0088,0.0088,0.0042,0.004,0.0039,0,0,0,0,0,0,0,0,0,0,0,0,0,0.0182,0.0182,0.0168,0.0167,0.0167,0.0122,0.0121,0.012,0.0089,0.0089,0.0088,0.0088,0.0042,0.0041,0.0039,0,0,0,0,0,0,0,0,0,0,0,0,0,0.0159,0.0182,0.0168,0.0147,0.0144,0.0122,0.0121,0.012,0.0089,0.0089,0.0088,0.0088,0.0042,0.0041,0.0039,0.0032,0,0,0.0034,0.0033,0,0,0,0,0,0,0,0,0.016,0.0158,0.015,0.0148,0.0145,0.0112,0.0109,0.0091,0.0089,0.0108,0.0088,0.0088,0.0066,0.0062,0.0052,0.003,0.0028,0.0034,0.0033,0.0032,0.0031,0,0,0,0,0,0,0,0.0162,0.016,0.0148,0.015,0.0147,0.0124,0.0121,0.0105,0.0088,0.0107,0.0105,0.0102,0.0065,0.0054,0.0051,0.0027,0.0034,0.0032,0.0031,0.003,0.0009,0.0009,0,0,0,0,0,0,0.0173,0.0161,0.015,0.0147,0.0154,0.0124,0.012,0.0122,0.0088,0.0083,0.0102,0.01,0.0057,0.0053,0.0049,0.006,0.0032,0.003,0.0029,0.0008,0.0009,0.001,0,0,0,0,0,0,0.0173,0.0173,0.0151,0.0154,0.015,0.0124,0.0126,0.0121,0.0114,0.0084,0.0079,0.01,0.0057,0.0052,0.0041,0.0057,0.003,0.0028,0.0008,0.0009,0.0009,0.0068,0,0,0,0,0,0,0.0174,0.0173,0.0176,0.0155,0.015,0.0147,0.0126,0.012,0.0113,0.011,0.0081,0.0076,0.0056,0.0044,0.0039,0.0054,0.0027,0.0007,0.0008,0.0009,0.0065,0.007,0.0075,0,0,0,0,0,0.0175,0.0185,0.0177,0.0175,0.0156,0.0148,0.0144,0.0123,0.0113,0.0115,0.0094,0.0078,0.0046,0.0043,0.0037,0.0052,0.0007,0.0008,0.0009,0.0063,0.0069,0.0075,0,0,0,0,0,0,0.019,0.0182,0.0173,0.0178,0.0168,0.0143,0.0142,0.0129,0.0112,0.0109,0.0081,0.0075,0.0071,0.0053,0.005,0.0048,0.0025,0.0025,0.0068,0.0073,0.0078,0.0095,0.0025,0,0,0,0,0,0.0196,0.0202,0.0187,0.0191,0.0188,0.0166,0.0159,0.0147,0.013,0.0122,0.0103,0.0083,0.007,0.0065,0.0048,0.0047,0.0027,0.0053,0.0058,0.0062,0.0073,0.0056,0.006,0.0013,0.0013,0.0013,0,0,0.0202,0.0199,0.0201,0.0195,0.0183,0.019,0.0161,0.0157,0.0165,0.012,0.0123,0.0097,0.0073,0.0071,0.0069,0.006,0.0064,0.0064,0.0068,0.0076,0.0057,0.0062,0.0066,0.0014,0.0013,0.0013,0,0,0.0223,0.0215,0.0229,0.0227,0.0218,0.0206,0.021,0.0191,0.0184,0.018,0.0153,0.0139,0.0117,0.0106,0.0097,0.0118,0.0087,0.0111,0.0153,0.0137,0.0141,0.0144,0.012,0.012,0.0117,0.0117,0.0117,0,0.023,0.0249,0.0231,0.0246,0.0253,0.022,0.0242,0.023,0.021,0.0215,0.0189,0.0164,0.0136,0.0146,0.0148,0.0131,0.0111,0.0135,0.0144,0.0147,0.0149,0.0123,0.0123,0.012,0.012,0.0119,0.0119,0,0.0264,0.0279,0.0287,0.03,0.0304,0.0314,0.0303,0.0302,0.0286,0.0277,0.0275,0.0233,0.0221,0.0208,0.0181,0.0191,0.0168,0.015,0.0132,0.0157,0.0128,0.0127,0.0124,0.0123,0.0122,0.0122,0,0,0.0283,0.0308,0.0312,0.0337,0.0337,0.0349,0.0362,0.0373,0.0398,0.0359,0.0387,0.0344,0.0316,0.0304,0.0269,0.025,0.0238,0.021,0.0207,0.0191,0.0196,0.016,0.0155,0.022,0.022,0.022,0.0167,0,0.0317,0.0368,0.0367,0.0417,0.0446,0.0431,0.0457,0.0461,0.0453,0.0468,0.0422,0.0428,0.0356,0.0355,0.0321,0.0267,0.0239,0.0254,0.0169,0.0167,0.0137,0.0154,0.0174,0.0127,0.0166,0.0166,0.0165,0,0.0352,0.0389,0.0446,0.0499,0.0511,0.0531,0.0576,0.0596,0.06,0.0597,0.0579,0.0539,0.0507,0.0442,0.035,0.0363,0.0283,0.0229,0.0225,0.0174,0.013,0.0108,0.0123,0.0163,0.0163,0.0164,0.0164,0,0.039,0.0444,0.0498,0.0514,0.0562,0.0588,0.0614,0.0635,0.0681,0.0683,0.0713,0.0647,0.0636,0.0526,0.039,0.0375,0.0287,0.0253,0.0143,0.0139,0.0131,0.0126,0.0185,0.0185,0.0186,0.0186,0.0186,0,0.0433,0.0477,0.0522,0.0554,0.0634,0.0645,0.0731,0.0741,0.0789,0.0868,0.0786,0.0824,0.0657,0.0578,0.0434,0.0287,0.0314,0.0156,0.0128,0.015,0.0148,0.0159,0.0157,0.0184,0.0184,0.0185,0.0185,0,0.0468,0.0491,0.0565,0.0629,0.0654,0.0716,0.0817,0.0887,0.0912,0.1011,0.1019,0.0966,0.0862,0.068,0.051,0.0362,0.0215,0.0151,0.0181,0.0156,0.0065,0.0067,0.0032,0.003,0.0029,0.0028,0.0027,0,0.0491,0.053,0.0624,0.0684,0.0716,0.0811,0.0889,0.0943,0.1032,0.1109,0.1168,0.109,0.1053,0.0774,0.0504,0.0246,0.021,0.0086,0.0055,0.0076,0.0052,0.0055,0.0058,0.0064,0.0063,0.0063,0.0063,0,0.0546,0.0574,0.0642,0.0763,0.0851,0.0969,0.108,0.1168,0.1255,0.1325,0.1397,0.1366,0.1107,0.0845,0.0478,0.0298,0.0125,0.0068,0.0098,0.0097,0.0101,0.0079,0.0082,0.0058,0.0059,0.0059,0.0059,0.006,0.0591,0.065,0.0739,0.0857,0.0967,0.1113,0.1224,0.1344,0.148,0.1588,0.1553,0.1506,0.1211,0.0739,0.0427,0.0092,0.011,-0.0013,-0.0009,-0.0005,0.0005,0.0007,-0.0052,-0.0053,-0.0053,-0.0053,-0.0053,0,0.0657,0.0725,0.0833,0.0979,0.1111,0.1157,0.1349,0.1453,0.1614,0.1676,0.171,0.1417,0.1125,0.0781,0.0294,0.0003,-0.0018,-0.01,-0.0053,-0.0047,-0.0042,-0.0031,-0.01,-0.0101,-0.0102,-0.0103,0,0,0.0697,0.0806,0.0859,0.1073,0.1182,0.1364,0.148,0.1606,0.1689,0.1735,0.1699,0.1628,0.1223,0.0862,0.0467,0.0187,0.0132,0.0121,0.019,0.0299,0.0308,0.0039,0.0065,0,0,0,0,0]}],[{"header":{"parameterUnit":"m.s-1","parameterCategory":2,"la1":30.2991,"la2":30.254,"lo1":-89.0895,"lo2":-89.0444,"dy":0.0017,"dx":0.0017,"nx":28,"ny":28,"refTime":"2025-08-22T03:00:00:Z","depth":"4","parameterNumber":2,"parameterNumberName":"U-component_of_CURRENTS"},"data":[0,0,0,0,0,0,0,0,0,0,0,0,0,0,0,0,0,0,0,0,0,0,0,0,0,0,0,0,0,0,0,0,0,0,0,0,0,0,0,0,0,0,0,0,0,0,0,0,0,0,0,0,0,0,0,0,0,0,0.1695,0.1696,0,0.1745,0.1746,0.1746,0.1796,0.1797,0.1797,0.1798,0.1851,0.1851,0.1852,0,0,0,0,0,0,0,0,0,0,0,0,0,0.1635,0.1635,0.1695,0.1696,0.1696,0.1745,0.1746,0.1746,0.1796,0.1797,0.1798,0.1799,0.185,0.1851,0.1852,0,0,0,0,0,0,0,0,0,0,0,0,0,0.1669,0.1636,0.1695,0.1728,0.1732,0.1745,0.1746,0.1746,0.1795,0.1797,0.1798,0.1799,0.185,0.1851,0.1852,0.1834,0,0,0.1855,0.1855,0,0,0,0,0,0,0,0,0.1667,0.1671,0.1723,0.1726,0.173,0.1767,0.1744,0.1776,0.1795,0.1769,0.1798,0.18,0.1823,0.1826,0.1831,0.1836,0.1838,0.1855,0.1856,0.1856,0.1856,0,0,0,0,0,0,0,0.1664,0.1669,0.1713,0.1723,0.1728,0.1739,0.1745,0.175,0.1787,0.1772,0.1776,0.1784,0.1825,0.183,0.1832,0.1839,0.1855,0.1856,0.1856,0.1857,0.1937,0.1939,0,0,0,0,0,0,0.1661,0.1667,0.1712,0.1715,0.1703,0.1739,0.1746,0.1753,0.1788,0.1795,0.1783,0.1786,0.1827,0.1831,0.1834,0.191,0.1856,0.1857,0.1857,0.1935,0.1937,0.1939,0,0,0,0,0,0,0.1659,0.1664,0.171,0.1693,0.17,0.1739,0.1746,0.1753,0.1796,0.1796,0.1803,0.1823,0.1828,0.1833,0.1874,0.1909,0.1857,0.1858,0.1934,0.1936,0.1938,0.2,0,0,0,0,0,0,0.1657,0.1663,0.1685,0.1693,0.1701,0.1741,0.1745,0.1753,0.1797,0.1803,0.1832,0.1836,0.183,0.1873,0.1875,0.1909,0.1859,0.1932,0.1935,0.1937,0.1996,0.2004,0.2011,0,0,0,0,0,0.1655,0.1673,0.1685,0.1692,0.1723,0.1743,0.1748,0.1778,0.1799,0.1821,0.1845,0.1838,0.1893,0.1875,0.1877,0.1912,0.193,0.1934,0.1937,0.1993,0.2003,0.2011,0,0,0,0,0,0,0.166,0.168,0.1694,0.1719,0.1742,0.1752,0.1782,0.1799,0.1835,0.1854,0.1854,0.1859,0.191,0.1902,0.1882,0.1945,0.1912,0.1916,0.1953,0.1962,0.197,0.1969,0.186,0,0,0,0,0,0.1669,0.1692,0.1708,0.1734,0.1749,0.1773,0.1793,0.1813,0.1836,0.1856,0.1877,0.1899,0.1918,0.1935,0.1949,0.198,0.1984,0.2005,0.2013,0.2019,0.2021,0.2071,0.2084,0.1951,0.1951,0.195,0,0,0.168,0.1695,0.171,0.1739,0.1762,0.1783,0.1789,0.183,0.1857,0.1854,0.1912,0.193,0.1933,0.1973,0.1994,0.1976,0.206,0.2024,0.2029,0.2028,0.2076,0.2089,0.2101,0.1953,0.1952,0.1952,0,0,0.1697,0.1727,0.1748,0.1768,0.1808,0.182,0.184,0.1873,0.1903,0.1947,0.1957,0.1998,0.2027,0.2038,0.2044,0.2101,0.21,0.2113,0.215,0.2199,0.2211,0.2221,0.2241,0.2253,0.2115,0.2116,0.2116,0,0.1714,0.1735,0.1759,0.1781,0.1802,0.184,0.1862,0.1893,0.1939,0.1967,0.1978,0.2046,0.2054,0.2095,0.2118,0.2118,0.214,0.2114,0.221,0.222,0.2229,0.2247,0.2259,0.2119,0.2119,0.2118,0.2118,0,0.1729,0.1762,0.178,0.1817,0.1842,0.1874,0.1908,0.1954,0.1996,0.2024,0.2095,0.2115,0.2155,0.2167,0.216,0.2231,0.2223,0.2216,0.2186,0.2246,0.2262,0.2273,0.2124,0.2123,0.2122,0.2121,0,0,0.172,0.1779,0.1789,0.181,0.1865,0.188,0.1938,0.1988,0.2032,0.2095,0.215,0.2197,0.223,0.2239,0.2249,0.2287,0.2369,0.2287,0.2288,0.2305,0.2473,0.2322,0.2319,0.2391,0.2393,0.2395,0.2456,0,0.1728,0.1767,0.1798,0.1842,0.1861,0.1913,0.1956,0.2013,0.207,0.2137,0.2187,0.2246,0.2251,0.2285,0.2331,0.2366,0.2403,0.2352,0.2413,0.2414,0.2272,0.2328,0.2403,0.2464,0.2467,0.2469,0.247,0,0.1723,0.175,0.1791,0.1847,0.1862,0.19,0.1975,0.2024,0.2121,0.2172,0.2252,0.2295,0.2378,0.2366,0.2469,0.2446,0.2468,0.2483,0.2486,0.2329,0.2284,0.2393,0.249,0.2488,0.2487,0.2485,0.2484,0,0.1676,0.1741,0.1773,0.1793,0.1864,0.1903,0.1954,0.2042,0.2093,0.2211,0.227,0.2363,0.2438,0.2487,0.2539,0.2521,0.2635,0.2608,0.2486,0.2475,0.2565,0.2554,0.2671,0.2671,0.2671,0.2671,0.267,0,0.1645,0.1676,0.1762,0.1776,0.182,0.1886,0.1954,0.2019,0.2125,0.2187,0.23,0.2358,0.2481,0.2556,0.2571,0.2567,0.267,0.2497,0.2486,0.2588,0.2579,0.2572,0.256,0.2673,0.2672,0.2672,0.2672,0,0.1579,0.1641,0.1679,0.1767,0.1798,0.1833,0.1946,0.1988,0.2115,0.2203,0.2249,0.24,0.2497,0.2579,0.2666,0.2603,0.2606,0.2574,0.2681,0.2674,0.2401,0.2391,0.2431,0.2426,0.2422,0.2419,0.2416,0,0.154,0.1558,0.1657,0.1677,0.1721,0.1794,0.1835,0.1966,0.2015,0.2199,0.2226,0.2379,0.246,0.247,0.2561,0.2577,0.255,0.2527,0.2451,0.2393,0.238,0.2376,0.2372,0.241,0.2409,0.2408,0.2407,0,0.1459,0.1516,0.1546,0.1593,0.1642,0.1686,0.1766,0.1792,0.1944,0.2085,0.2154,0.2206,0.2314,0.2377,0.2421,0.2421,0.2524,0.2484,0.2492,0.242,0.2368,0.2358,0.2358,0.2393,0.2395,0.2396,0.2397,0,0.1397,0.14,0.1454,0.1482,0.154,0.155,0.161,0.1673,0.1746,0.1954,0.1973,0.2138,0.229,0.2297,0.2327,0.233,0.2286,0.2197,0.2218,0.2234,0.2141,0.2045,0.1965,0,0,0,0,0,0.1321,0.1312,0.1331,0.1348,0.1403,0.1437,0.1543,0.1613,0.1775,0.1774,0.1868,0.1951,0.2019,0.2106,0.2069,0.2228,0.2285,0.2172,0.2191,0.2316,0.2332,0.224,0,0,0,0,0,0,0.1263,0.128,0.1288,0.1238,0.1227,0.1267,0.1332,0.1437,0.1452,0.1631,0.1688,0.1824,0.1928,0.2021,0.2028,0.2052,0.2021,0.2277,0.2272,0.2307,0.2322,0.2334,0.2246,0,0,0,0,0]},{"header":{"parameterUnit":"m.s-1","parameterCategory":2,"la1":30.2991,"la2":30.254,"lo1":-89.0895,"lo2":-89.0444,"dy":0.0017,"dx":0.0017,"nx":28,"ny":28,"refTime":"2025-08-22T03:00:00:Z","depth":"4","parameterNumber":3,"parameterNumberName":"V-component_of_CURRENTS"},"data":[0,0,0,0,0,0,0,0,0,0,0,0,0,0,0,0,0,0,0,0,0,0,0,0,0,0,0,0,0,0,0,0,0,0,0,0,0,0,0,0,0,0,0,0,0,0,0,0,0,0,0,0,0,0,0,0,0,0,0.0142,0.0141,0,0.0112,0.0111,0.0111,0.0092,0.0092,0.0092,0.0091,0.0062,0.0061,0.006,0,0,0,0,0,0,0,0,0,0,0,0,0,0.015,0.015,0.0142,0.0141,0.0141,0.0112,0.0111,0.0111,0.0092,0.0092,0.0091,0.0091,0.0062,0.0061,0.006,0,0,0,0,0,0,0,0,0,0,0,0,0,0.0135,0.015,0.0142,0.0129,0.0127,0.0112,0.0111,0.0111,0.0092,0.0092,0.0091,0.0091,0.0062,0.0061,0.006,0.0054,0,0,0.0057,0.0056,0,0,0,0,0,0,0,0,0.0136,0.0135,0.0131,0.013,0.0128,0.0106,0.0103,0.0092,0.0092,0.0104,0.0091,0.0091,0.0077,0.0075,0.0068,0.0053,0.0051,0.0057,0.0056,0.0055,0.0055,0,0,0,0,0,0,0,0.0137,0.0136,0.0129,0.0131,0.0129,0.0113,0.0111,0.0101,0.0091,0.0103,0.0102,0.01,0.0076,0.0069,0.0067,0.0051,0.0057,0.0056,0.0055,0.0054,0.0043,0.0043,0,0,0,0,0,0,0.0144,0.0137,0.013,0.0128,0.0133,0.0113,0.0111,0.0112,0.0091,0.0088,0.01,0.0099,0.0071,0.0069,0.0066,0.0078,0.0055,0.0054,0.0054,0.0042,0.0043,0.0043,0,0,0,0,0,0,0.0145,0.0144,0.0131,0.0132,0.013,0.0114,0.0115,0.0112,0.0109,0.0089,0.0085,0.0101,0.0071,0.0068,0.0062,0.0076,0.0054,0.0053,0.0042,0.0042,0.0043,0.0088,0,0,0,0,0,0,0.0145,0.0145,0.0148,0.0133,0.013,0.0129,0.0115,0.0111,0.0108,0.0107,0.0088,0.0085,0.0071,0.0064,0.0061,0.0074,0.0052,0.0041,0.0042,0.0043,0.0086,0.009,0.0094,0,0,0,0,0,0.0146,0.0153,0.0149,0.0148,0.0136,0.013,0.0127,0.0114,0.0108,0.0111,0.0097,0.0086,0.0067,0.0064,0.006,0.0073,0.0041,0.0042,0.0043,0.0085,0.009,0.0094,0,0,0,0,0,0,0.0157,0.0151,0.0146,0.0151,0.0144,0.0127,0.0128,0.0119,0.011,0.0108,0.0089,0.0085,0.0085,0.0072,0.0069,0.0071,0.0053,0.0053,0.0086,0.009,0.0094,0.0107,0.0051,0,0,0,0,0,0.0162,0.0167,0.0157,0.0161,0.016,0.0145,0.0141,0.0133,0.0122,0.0118,0.0105,0.0093,0.0085,0.0082,0.007,0.0072,0.0047,0.0078,0.0081,0.0085,0.0092,0.0063,0.0065,0.0046,0.0046,0.0046,0,0,0.0167,0.0165,0.0167,0.0164,0.0157,0.0163,0.0142,0.014,0.0148,0.0116,0.0122,0.0104,0.0087,0.0088,0.0088,0.008,0.0076,0.0086,0.0089,0.0095,0.0065,0.0066,0.0068,0.0046,0.0046,0.0046,0,0,0.0182,0.0179,0.019,0.0189,0.0184,0.0177,0.018,0.0167,0.0165,0.0164,0.0145,0.0136,0.0124,0.0115,0.011,0.0127,0.0094,0.0123,0.0156,0.0128,0.0129,0.013,0.0095,0.0092,0.0128,0.0128,0.0128,0,0.0188,0.0203,0.0191,0.0203,0.021,0.0188,0.0205,0.0198,0.0186,0.019,0.0174,0.0155,0.0138,0.0144,0.0149,0.0137,0.0111,0.0141,0.0133,0.0133,0.0133,0.0097,0.0094,0.013,0.013,0.013,0.013,0,0.0213,0.0227,0.0233,0.0245,0.025,0.0259,0.0253,0.0255,0.0247,0.0239,0.0238,0.0208,0.02,0.0191,0.0176,0.0175,0.0153,0.0138,0.0123,0.0138,0.0099,0.0094,0.0134,0.0133,0.0132,0.0131,0,0,0.0225,0.0248,0.0251,0.0272,0.0276,0.0286,0.0299,0.0309,0.0327,0.0301,0.0317,0.0292,0.0271,0.0263,0.0237,0.0213,0.0187,0.0181,0.0178,0.0148,0.0117,0.0099,0.0092,0.0168,0.0168,0.0168,0.0086,0,0.025,0.029,0.0292,0.0333,0.0356,0.035,0.0372,0.0377,0.0371,0.0377,0.0341,0.0342,0.03,0.0298,0.0266,0.021,0.0178,0.021,0.0104,0.0101,0.0085,0.0087,0.0167,0.0083,0.0082,0.0081,0.008,0,0.0274,0.0303,0.035,0.0395,0.0405,0.0425,0.0461,0.0479,0.0476,0.0472,0.0454,0.0419,0.0386,0.0345,0.025,0.027,0.02,0.0147,0.0143,0.011,0.0076,0.0064,0.0072,0.0072,0.0073,0.0074,0.0074,0,0.0297,0.0343,0.0387,0.0401,0.0444,0.0469,0.0494,0.0509,0.0542,0.0533,0.0545,0.0486,0.0468,0.0371,0.0255,0.0252,0.0138,0.012,0.0035,0.0032,0.0052,0.0052,0.005,0.005,0.005,0.0051,0.0051,0,0.0324,0.0361,0.0405,0.0431,0.0498,0.0512,0.0582,0.0589,0.0619,0.066,0.0601,0.0606,0.0473,0.0389,0.0273,0.0139,0.0148,0.0041,0.0013,0.0072,0.0075,0.0048,0.0049,0.0047,0.0048,0.0049,0.0049,0,0.0343,0.0368,0.0428,0.0486,0.0511,0.0563,0.0649,0.07,0.0712,0.0759,0.076,0.0697,0.0585,0.0438,0.0277,0.0175,0.0041,-0.001,0.006,0.0037,-0.0053,-0.0048,-0.0109,-0.0111,-0.0112,-0.0113,-0.0113,0,0.0355,0.0387,0.0471,0.0522,0.0553,0.0636,0.0701,0.0745,0.08,0.0813,0.0836,0.0745,0.0679,0.0447,0.028,0.005,0.0016,-0.0062,-0.0055,-0.0046,-0.0068,-0.0062,-0.0056,-0.0115,-0.0115,-0.0116,-0.0116,0,0.0386,0.0415,0.047,0.0572,0.0648,0.0744,0.083,0.0873,0.092,0.0927,0.0902,0.0775,0.0648,0.0454,0.0271,0.0106,-0.0016,-0.0073,-0.0072,-0.0067,-0.0054,-0.0073,-0.0066,-0.012,-0.0119,-0.0119,-0.0118,0,0.0412,0.0456,0.053,0.0623,0.0722,0.0819,0.0866,0.0926,0.0975,0.0973,0.0959,0.0813,0.0728,0.0483,0.0316,0.0148,0.0104,0.0045,0.0039,0.0041,0.0104,0.0143,0.0117,0,0,0,0,0,0.0439,0.0494,0.0578,0.0681,0.078,0.0838,0.094,0.098,0.1011,0.1002,0.0983,0.0859,0.0612,0.0513,0.0344,0.0284,0.0067,0.0078,-0.0006,-0.014,-0.0136,-0.009,0,0,0,0,0,0,0.046,0.0538,0.058,0.0712,0.0785,0.09,0.0966,0.0989,0.0991,0.0987,0.087,0.0801,0.0573,0.0705,0.0335,0.0284,0.0203,-0.0035,-0.0039,-0.0142,-0.0138,-0.0135,-0.0087,0,0,0,0,0]}]]